Regional Weather Roundup
Issued by NWS

Home | Current Version | Previous Version | Text Only | Print | Product List | Glossary On
Versions: 1 2 3 4 5 6 7 8 9 10 11 12 13 14 15 16 17 18 19 20 21 22 23 24 25 26 27 28 29 30 31 32 33 34 35 36 37 38 39 40 41 42 43 44 45 46 47 48 49 50
433
ASUS43 KBIS 061102
RWRND

NORTH DAKOTA REGIONAL WEATHER ROUNDUP
NATIONAL WEATHER SERVICE BISMARCK ND
600 AM CDT FRI MAY 06 2016

NOTE: "FAIR" INDICATES FEW OR NO CLOUDS BELOW 12,000 FEET WITH NO
SIGNIFICANT WEATHER AND/OR OBSTRUCTIONS TO VISIBILITY.


NDZ001>003-009>011-017-061200-
NORTHWEST NORTH DAKOTA

CITY           SKY/WX    TMP DP  RH WIND       PRES   REMARKS
WILLISTON      MOCLDY    57  42  57 N22G31    29.90R
MINOT          CLOUDY    67  41  38 NW15      29.79R
$$

NDZ018>021-031>035-040>046-061200-
SOUTHWEST NORTH DAKOTA

CITY           SKY/WX    TMP DP  RH WIND       PRES   REMARKS
BISMARCK       CLOUDY    50  46  86 N5        29.79R
DICKINSON      MOCLDY    51  42  71 NW8       29.81R
GARRISON         N/A     56  43  61 N9        29.78R
HETTINGER ARPT CLOUDY    49  44  83 CALM      29.85S
$$

NDZ004>008-012>016-024-026-027-054-061200-
NORTHEAST NORTH DAKOTA

CITY           SKY/WX    TMP DP  RH WIND       PRES   REMARKS
GRAND FORKS    PTCLDY    61  48  62 SW7       29.68R
GRND FRKS AFB  PTCLDY    63  48  59 W8        29.68R
DEVILS LAKE    PTCLDY    54  44  69 CALM      29.72S
$$

NDZ022-023-025-028>030-036>039-047>053-061200-
SOUTHEAST NORTH DAKOTA

CITY           SKY/WX    TMP DP  RH WIND       PRES   REMARKS
FARGO          CLEAR     56  40  55 S5        29.74F
JAMESTOWN      CLEAR     52  46  80 S5        29.74S
$$





USA.gov is the U.S. government's official web portal to all federal, state and local government web resources and services.